Wind_Speed
26 24 22 23 20 21 19 18 2 22 23 6 6 6 4 2 4 2 1 1 4 4 2 2 1 6 5 3 2 2 2 3 5 5 14 10 4 2 3 3 3 1 3 5
28 27 24 25 25 27 27 14 5 24 28 4 4 1 2 2 2 2 3 4 5 2 6 1 6 4 5 7 5 5 4 1 4 8 1 5 5 3 3 2 2 2 2 4
28 27 28 27 29 31 27 10 4 6 21 5 5 4 4 3 7 7 4 2 2 2 4 5 3 4 3 2 3 5 4 4 6 9 6 1 4 7 5 3 2 5 6 5
28 28 28 31 32 34 29 12 6 9 7 10 5 6 5 10 5 5 5 2 7 7 5 3 5 5 3 2 5 4 4 6 5 6 7 7 11 14 14 11 12 6 6 6
29 32 30 31 34 33 32 10 7 8 1 17 17 12 6 7 7 4 5 6 6 7 7 8 5 4 4 6 2 3 1 4 3 4 8 12 18 16 18 14 15 14 12 12
33 34 28 32 35 37 25 19 18 12 8 12 11 16 8 7 9 7 13 6 5 9 10 16 22 22 15 7 6 6 4 3 1 12 8 11 10 16 14 4 5 9 10 6
33 35 33 33 36 43 34 31 15 9 3 9 14 9 19 10 11 7 2 14 8 12 12 14 6 10 13 11 9 12 6 4 3 7 5 11 7 3 4 7 6 6 3 5
35 34 34 36 35 48 46 24 28 14 5 12 8 10 8 17 21 19 18 26 18 11 5 2 2 3 4 6 8 9 10 5 2 4 8 9 8 3 3 4 5 6 8 8
37 36 36 39 40 43 46 49 17 20 8 10 14 15 15 5 5 1 11 22 19 11 4 3 5 4 3 3 4 7 10 11 8 3 5 3 4 3 4 4 4 10 14 16
40 40 40 40 44 40 43 43 51 12 7 12 22 8 10 13 6 2 2 1 4 17 3 3 3 4 4 4 4 2 3 1 9 6 5 6 3 4 1 3 4 8 19 24
39 39 42 43 43 41 39 41 43 35 3 15 26 21 20 15 13 4 4 3 1 3 3 3 3 4 5 4 4 5 5 6 3 3 4 8 4 1 5 2 2 6 14 19
38 39 43 45 51 50 39 32 36 38 20 6 19 20 25 24 14 4 5 3 4 7 2 2 3 4 2 5 4 5 5 5 2 5 4 0 4 4 3 7 8 8 15 18
37 39 43 42 42 46 41 36 24 29 21 14 22 24 25 22 26 17 8 7 14 7 8 6 4 4 3 3 7 3 1 4 3 1 4 5 6 4 5 9 8 11 10 15
38 38 40 37 34 41 40 35 29 28 10 7 15 11 25 32 26 31 21 24 26 21 16 5 2 3 5 3 4 4 3 8 6 3 3 3 9 11 10 11 11 11 11 13
38 39 39 41 39 38 37 34 31 28 25 3 12 27 27 19 32 37 34 28 28 19 5 3 4 5 2 3 1 3 10 5 5 6 13 6 5 20 16 12 10 10 14 18
40 39 40 39 39 38 33 20 34 37 31 13 3 6 13 29 33 26 27 33 28 20 7 5 6 7 5 3 3 5 14 12 14 3 11 8 11 17 15 11 12 12 16 21
42 42 40 40 39 42 46 9 8 32 30 10 4 5 5 14 15 16 15 22 16 10 6 5 5 5 11 3 3 5 12 11 12 12 19 11 20 13 18 15 16 17 20 22
47 44 43 42 40 39 43 21 7 14 40 10 3 2 3 13 6 5 11 8 11 8 5 4 6 6 5 4 3 12 15 13 14 19 9 5 19 17 18 18 22 23 23 21
49 47 41 37 34 34 42 43 15 34 20 7 5 5 4 11 6 6 5 4 2 4 3 4 6 3 5 5 9 18 22 16 17 13 5 12 22 23 21 24 23 23 22 20
57 50 33 17 34 36 36 19 10 13 15 6 4 9 2 12 5 3 6 5 2 2 4 5 3 4 14 10 11 13 20 13 19 18 16 20 21 23 25 25 23 20 19 19
53 25 17 27 44 29 18 10 8 8 6 12 10 14 6 10 2 3 4 3 3 3 4 4 2 3 6 16 16 14 19 14 12 10 13 18 21 25 27 24 20 18 15 18
31 32 42 47 22 9 8 6 4 5 7 10 14 12 14 6 4 4 4 2 1 4 2 2 3 3 11 21 20 20 17 11 13 9 8 16 19 23 23 21 19 17 15 16
62 34 8 10 6 6 7 9 3 4 7 13 19 11 8 6 2 3 2 3 4 2 2 3 4 2 14 22 24 20 16 14 12 11 10 14 17 20 19 18 16 15 15 16
11 6 5 3 1 3 4 4 5 8 22 34 33 10 6 6 3 2 3 3 2 2 2 5 3 13 21 25 24 22 20 16 13 13 14 16 16 17 14 12 13 16 16 17
7 6 4 2 1 2 7 13 18 24 35 35 16 7 5 2 4 2 2 2 4 5 4 3 6 20 25 27 23 21 20 18 14 15 15 14 13 13 14 14 13 15 15 17
6 8 3 5 6 6 15 24 28 34 35 26 9 3 3 2 4 3 5 5 5 3 1 3 18 24 25 23 21 20 19 18 16 15 14 14 14 13 13 16 15 15 15 17
5 4 10 6 7 10 14 24 26 34 25 3 3 4 5 3 2 2 3 4 1 2 4 13 23 25 22 20 20 18 18 16 16 17 16 16 16 16 15 15 16 15 14 14
Wind_Direction
214 206 199 195 186 177 174 164 130 168 170 143 196 209 182 285 306 32 244 180 191 193 132 285 245 231 225 200 183 220 207 167 278 241 271 263 174 167 70 252 255 148 164 266
212 209 204 202 189 180 168 152 109 173 175 187 209 322 166 232 254 239 198 222 202 128 182 243 210 223 264 239 192 191 195 230 316 321 45 7 68 88 116 72 347 272 234 272
208 208 204 197 190 182 176 156 140 167 198 193 145 139 190 216 229 257 240 238 73 119 211 232 261 221 263 267 217 194 181 184 194 256 242 294 302 298 257 182 198 236 220 255
212 207 207 199 193 188 184 181 205 179 189 218 183 157 193 196 221 233 225 236 198 202 243 188 234 244 284 206 211 191 166 216 212 235 254 272 280 284 275 237 239 231 252 227
216 206 204 210 195 195 200 190 156 171 182 192 189 203 208 194 189 199 225 215 203 220 204 205 237 214 199 221 208 195 212 264 139 259 270 269 270 266 260 249 251 244 251 257
217 213 204 202 204 201 210 197 196 177 178 177 190 213 191 192 193 256 238 230 232 255 246 250 264 264 262 215 180 198 182 172 79 278 279 281 276 240 241 246 202 212 222 221
221 221 217 207 207 210 209 208 179 180 214 175 200 190 203 208 210 224 275 235 238 240 276 289 272 253 243 232 228 200 174 169 186 286 302 270 249 235 214 223 244 187 107 151
223 225 221 211 210 210 217 215 198 202 216 193 183 174 186 216 233 246 252 258 246 277 295 53 309 333 326 238 221 224 209 176 201 246 240 276 304 209 216 189 275 179 140 127
227 223 220 217 209 212 217 221 200 208 174 211 183 184 183 174 201 318 233 266 267 256 126 205 207 224 222 260 278 225 225 213 208 211 269 258 239 192 232 225 275 159 147 155
225 224 219 221 208 211 214 219 225 220 230 202 184 173 182 199 187 176 256 189 153 211 136 208 196 239 217 224 220 203 162 183 230 218 234 255 181 189 188 137 246 157 171 168
224 223 217 217 211 204 212 221 222 226 242 214 209 217 208 200 211 159 185 85 247 92 163 188 191 224 228 221 221 179 194 196 195 200 238 265 128 65 179 194 109 167 181 175
221 219 211 213 216 202 210 217 223 229 231 247 217 217 212 215 188 157 207 231 169 212 150 209 186 226 239 200 239 211 226 188 217 188 235 98 202 257 221 174 158 162 174 182
216 213 212 215 208 201 202 212 208 216 230 253 253 253 218 228 235 238 215 228 232 231 241 215 200 224 171 208 232 217 332 131 219 77 204 210 207 200 185 171 163 151 167 181
216 213 212 211 199 197 200 207 206 211 222 246 259 248 245 246 244 241 235 257 260 255 242 241 188 198 217 234 245 192 173 144 170 263 283 199 226 209 183 156 149 143 150 174
211 210 209 207 203 197 204 211 212 214 200 241 250 257 254 257 232 240 250 254 247 229 220 208 220 232 90 292 292 222 170 185 189 217 209 184 208 196 190 171 166 168 167 159
210 207 206 203 202 197 196 204 221 220 212 239 279 248 242 237 239 245 237 242 233 212 196 190 230 235 165 234 237 226 194 206 223 246 182 184 165 180 182 194 180 166 164 161
212 207 202 200 195 195 190 189 229 213 207 222 247 286 266 222 210 208 216 221 210 184 175 216 237 215 197 198 238 205 201 209 207 189 162 131 166 173 179 182 164 158 157 162
207 201 197 197 197 201 206 194 207 208 188 233 214 193 230 187 158 164 179 178 178 186 204 232 204 187 201 240 217 190 186 176 170 171 186 212 182 175 179 175 166 167 168 172
199 194 190 190 193 195 203 199 193 178 171 211 193 154 197 174 166 144 153 143 154 181 226 222 174 180 216 223 191 194 192 178 179 176 171 170 169 171 174 172 177 177 172 175
182 174 174 179 183 197 205 204 231 169 204 245 200 154 177 180 145 128 133 176 212 181 237 176 187 236 231 226 232 220 196 187 180 160 155 167 174 182 180 188 187 187 182 180
161 168 174 180 179 166 180 196 213 144 177 198 200 179 139 191 138 149 147 172 182 209 246 162 245 253 212 211 200 191 185 190 202 236 213 191 183 180 182 185 186 187 192 187
155 141 136 136 161 162 191 194 221 172 181 159 172 170 147 119 129 130 194 189 88 237 135 109 256 240 196 184 175 169 176 173 181 187 192 184 182 182 184 183 185 193 195 195
115 113 108 140 173 178 175 186 171 139 151 144 151 149 128 127 157 78 121 149 219 128 73 232 231 214 178 172 163 163 171 174 178 175 177 173 171 178 187 188 191 192 191 189
95 95 90 144 243 202 207 164 146 131 141 144 147 125 131 147 112 165 137 229 141 187 236 234 236 180 170 167 164 163 167 173 172 170 167 169 175 183 191 200 200 198 196 192
72 53 65 61 216 160 148 121 117 133 143 140 120 84 116 100 116 196 130 149 226 215 229 238 179 167 165 166 167 169 169 171 170 169 169 172 180 187 191 193 199 203 204 200
66 50 66 30 92 92 104 118 128 140 139 137 93 114 117 190 139 155 202 170 220 247 240 203 163 162 164 168 171 174 175 174 172 177 182 186 191 195 196 195 198 201 203 199
55 34 41 66 71 98 116 134 133 140 138 123 126 101 185 122 122 188 177 207 249 187 155 166 167 165 165 170 174 172 176 181 185 184 189 193 196 198 199 198 191 187 184 187
Height
1464 1468 1472 1476 1480 1485 1489 1492 1496 1499 1501 1507 1507 1505 1506 1506 1504 1504 1505 1506 1507 1509 1510 1510 1517 1510 1506 1503 1503 1503 1503 1510 1511 1499 1489 1487 1490 1493 1495 1502 1491 1502 1514 1499
1459 1463 1469 1472 1476 1482 1485 1489 1493 1497 1500 1504 1502 1503 1503 1505 1506 1504 1503 1504 1505 1507 1513 1518 1510 1507 1503 1503 1503 1503 1502 1508 1515 1497 1495 1493 1494 1496 1502 1509 1510 1502 1501 1499
1453 1459 1464 1468 1473 1479 1484 1488 1493 1495 1499 1496 1497 1503 1505 1505 1503 1504 1504 1502 1504 1505 1508 1507 1508 1506 1503 1501 1501 1500 1499 1505 1505 1508 1505 1502 1501 1494 1494 1498 1506 1501 1498 1489
1448 1454 1459 1464 1469 1475 1482 1481 1483 1482 1487 1489 1496 1499 1502 1503 1504 1503 1502 1502 1502 1504 1509 1507 1508 1505 1502 1500 1500 1499 1501 1509 1504 1501 1498 1498 1497 1496 1493 1493 1490 1497 1487 1486
1442 1448 1454 1460 1464 1471 1475 1475 1477 1480 1483 1486 1493 1498 1497 1500 1500 1501 1499 1500 1497 1500 1504 1504 1503 1502 1502 1501 1499 1500 1500 1510 1508 1509 1497 1496 1493 1490 1487 1483 1482 1480 1479 1478
1436 1442 1448 1454 1460 1465 1465 1467 1472 1475 1479 1484 1490 1487 1492 1495 1498 1496 1495 1495 1498 1500 1498 1498 1498 1497 1496 1494 1496 1500 1501 1505 1509 1495 1492 1488 1488 1481 1478 1473 1471 1470 1476 1469
1430 1436 1441 1449 1455 1458 1461 1463 1468 1473 1476 1477 1478 1484 1490 1492 1492 1494 1492 1494 1496 1494 1495 1495 1493 1492 1492 1492 1490 1491 1496 1499 1503 1494 1495 1489 1476 1469 1468 1469 1463 1464 1469 1473
1423 1428 1435 1441 1448 1453 1455 1459 1465 1467 1470 1472 1479 1482 1485 1487 1490 1492 1491 1490 1492 1492 1495 1495 1494 1496 1492 1487 1484 1486 1487 1493 1497 1495 1488 1476 1470 1469 1469 1469 1462 1461 1468 1474
1414 1421 1427 1434 1441 1446 1452 1456 1460 1464 1466 1466 1474 1479 1481 1485 1488 1487 1485 1485 1487 1491 1492 1496 1491 1491 1489 1488 1481 1475 1479 1482 1487 1489 1481 1475 1468 1467 1468 1465 1468 1459 1463 1471
1405 1412 1419 1426 1433 1441 1447 1450 1456 1460 1461 1464 1467 1471 1476 1480 1481 1482 1481 1481 1482 1486 1489 1491 1492 1491 1484 1485 1479 1475 1481 1482 1480 1480 1478 1472 1464 1466 1465 1471 1468 1462 1463 1467
1396 1403 1411 1418 1426 1434 1440 1444 1452 1456 1457 1460 1463 1466 1469 1473 1474 1478 1480 1483 1482 1484 1490 1490 1487 1491 1481 1476 1469 1469 1473 1478 1478 1480 1478 1472 1463 1465 1467 1464 1462 1462 1464 1467
1388 1395 1404 1411 1419 1427 1436 1442 1447 1453 1458 1458 1460 1461 1465 1467 1470 1473 1475 1477 1476 1477 1482 1484 1483 1482 1478 1473 1475 1461 1470 1468 1469 1468 1466 1464 1462 1463 1463 1462 1461 1463 1465 1467
1381 1388 1397 1404 1412 1421 1430 1436 1444 1451 1455 1456 1457 1458 1461 1463 1466 1470 1472 1472 1474 1474 1476 1476 1473 1476 1469 1470 1464 1460 1460 1460 1469 1470 1464 1463 1462 1462 1462 1462 1462 1463 1465 1467
1375 1383 1391 1399 1409 1418 1427 1433 1441 1448 1453 1455 1450 1452 1453 1460 1461 1463 1465 1469 1471 1473 1472 1474 1469 1470 1460 1460 1457 1458 1458 1462 1463 1465 1462 1463 1461 1461 1462 1462 1463 1464 1466 1469
1368 1377 1387 1397 1406 1417 1426 1433 1438 1445 1453 1450 1447 1447 1447 1451 1453 1456 1460 1463 1466 1467 1470 1466 1466 1460 1460 1460 1457 1454 1451 1456 1458 1454 1446 1449 1450 1456 1460 1461 1463 1465 1466 1470
1362 1373 1383 1394 1404 1416 1424 1432 1434 1438 1447 1454 1447 1442 1440 1442 1446 1448 1451 1455 1459 1460 1460 1459 1458 1454 1456 1457 1453 1442 1442 1445 1446 1445 1445 1449 1451 1455 1459 1461 1464 1466 1468 1471
1355 1368 1380 1391 1401 1408 1411 1418 1423 1433 1446 1451 1449 1442 1437 1438 1439 1443 1445 1448 1451 1452 1451 1453 1451 1449 1451 1451 1446 1438 1439 1441 1442 1443 1445 1451 1452 1454 1459 1462 1465 1468 1471 1474
1347 1363 1376 1388 1400 1411 1415 1418 1423 1427 1440 1445 1436 1434 1436 1436 1436 1439 1441 1443 1445 1445 1447 1446 1444 1446 1446 1443 1434 1434 1436 1439 1441 1442 1443 1444 1449 1454 1458 1461 1465 1468 1471 1474
1340 1361 1379 1393 1399 1403 1407 1417 1422 1425 1433 1433 1429 1427 1433 1433 1434 1436 1439 1440 1442 1444 1443 1439 1440 1439 1437 1428 1429 1431 1432 1435 1437 1442 1444 1445 1448 1452 1457 1460 1464 1467 1471 1474
1337 1362 1372 1377 1386 1402 1414 1424 1422 1419 1424 1424 1421 1422 1428 1430 1429 1433 1437 1438 1439 1440 1436 1433 1434 1430 1424 1424 1425 1427 1430 1434 1437 1441 1444 1447 1449 1451 1455 1459 1464 1467 1470 1473
1330 1346 1362 1371 1387 1405 1414 1412 1401 1406 1414 1414 1415 1416 1422 1426 1426 1430 1431 1434 1437 1437 1431 1432 1428 1423 1418 1420 1422 1425 1430 1434 1437 1439 1440 1444 1448 1450 1454 1459 1464 1468 1471 1474
1317 1329 1351 1373 1388 1394 1399 1392 1388 1387 1393 1397 1403 1412 1416 1423 1426 1428 1431 1431 1433 1432 1428 1431 1427 1414 1411 1414 1419 1424 1429 1433 1436 1439 1441 1444 1447 1451 1456 1459 1463 1467 1470 1473
1322 1340 1355 1367 1371 1374 1370 1375 1374 1374 1379 1387 1397 1408 1413 1421 1423 1424 1426 1430 1431 1427 1432 1426 1414 1410 1411 1415 1419 1425 1430 1433 1437 1440 1442 1445 1448 1453 1457 1460 1464 1467 1469 1472
1327 1340 1359 1360 1368 1360 1360 1361 1363 1367 1373 1382 1394 1403 1410 1417 1422 1425 1426 1426 1425 1425 1432 1415 1410 1408 1412 1416 1421 1425 1430 1434 1438 1441 1444 1447 1450 1454 1458 1461 1463 1466 1468 1471
1333 1340 1357 1358 1359 1359 1358 1357 1360 1368 1376 1382 1393 1403 1406 1413 1419 1422 1424 1425 1422 1419 1415 1410 1405 1408 1413 1418 1422 1427 1431 1435 1439 1442 1445 1448 1451 1454 1457 1460 1463 1466 1468 1470
1343 1352 1357 1357 1357 1359 1360 1360 1367 1373 1380 1387 1392 1403 1410 1412 1414 1418 1418 1416 1415 1412 1407 1406 1407 1411 1416 1420 1425 1429 1433 1437 1440 1443 1446 1449 1452 1454 1457 1459 1462 1464 1467 1470
1353 1360 1360 1359 1361 1361 1365 1368 1371 1377 1382 1390 1392 1399 1403 1406 1410 1411 1410 1413 1409 1407 1407 1408 1411 1414 1419 1423 1427 1431 1435 1439 1441 1444 1447 1450 1452 1454 1456 1458 1461 1464 1467 1471